Regional Weather Roundup
Issued by NWS

Home | Current Version | Previous Version | Graphics & Text | Print | Product List | Glossary On
Versions: 1 2 3 4 5 6 7 8 9 10 11 12 13 14 15 16 17 18 19 20 21 22 23 24 25 26 27 28 29 30 31 32 33 34 35 36 37 38 39 40 41 42 43 44 45 46 47 48 49 50
000
ASUS43 KIND 260559
RWRIN

WEATHER ROUNDUP FOR INDIANA
NATIONAL WEATHER SERVICE INDIANAPOLIS IN
200 AM EDT WED APR 26 2017

NOTE: "FAIR" INDICATES FEW OR NO CLOUDS BELOW 12,000 FEET WITH NO
SIGNIFICANT WEATHER AND/OR OBSTRUCTIONS TO VISIBILITY.

* - STATION DOES NOT REPORT WEATHER SUCH AS PRECIPITATION OR FOG.

+ - STATION NOT QUALITY CONTROLLED BY THE NATIONAL WEATHER SERVICE.
    USE DATA WITH CAUTION...ESPECIALLY DEWPOINT AND RELATIVE
    HUMIDITY OBSERVATIONS.

INZ001>003-010>013-019-020-260700-
NORTHWEST INDIANA

CITY           SKY/WX    TMP DP  RH WIND       PRES   REMARKS
KNOX *+        PTCLDY    64  34  32 SE12      29.61F
MONTICELLO +   CLOUDY    65  55  69 SE6       29.62S
6HR MIN TEMP:  65; 6HR MAX TEMP:  74;


$$

LMZ046-743>745-260700-
SOUTHERN LAKE MICHIGAN

STATION/POSITION TIME  TEMP    WIND        PRES    WAVE
                       AIR SEA DIR/SP/G            HT
                 (UTC) (F)     (DEG/KT/KT) (MB)    (FT)
BURNS HARBOR     0540   69     160/  9/ 16 1002.4F
MICHIGAN CITY    0530   68     150/ 11/ 14   N/A

$$

INZ004-005-014>016-021>024-260700-
NORTH CENTRAL INDIANA

CITY           SKY/WX    TMP DP  RH WIND       PRES   REMARKS
GOSHEN         CLEAR     63  53  70 SE9       29.64S
6HR MIN TEMP:  62; 6HR MAX TEMP:  72;

SOUTH BEND     CLOUDY    66  55  67 S13       29.63F
6HR MIN TEMP:  65; 6HR MAX TEMP:  72;


$$

INZ006>009-017-018-025>027-260700-
NORTHEAST INDIANA

CITY           SKY/WX    TMP DP  RH WIND       PRES   REMARKS
ANGOLA *+      CLEAR     57  54  88 SE10      29.66F
FORT WAYNE     PTCLDY    60  53  77 SE7       29.67S
6HR MIN TEMP:  60; 6HR MAX TEMP:  73;

KENDALLVILLE + CLOUDY    57  54  90 SE7       29.66F

$$

INZ028-029-035-036-043>045-051>053-260700-
WEST CENTRAL INDIANA

CITY           SKY/WX    TMP DP  RH WIND       PRES   REMARKS
CRAWFORDSVL +  PTCLDY    60  55  82 SE8       29.63F
6HR MIN TEMP:  60; 6HR MAX TEMP:  72;

GREENCASTLE +  MOCLDY    61  54  77 SE5       29.65F
LAFAYETTE      MOCLDY    64  56  75 SE6       29.61F
6HR MIN TEMP:  64; 6HR MAX TEMP:  74;

TERRE HAUTE    CLOUDY    64  55  72 SE7       29.63S
6HR MIN TEMP:  63; 6HR MAX TEMP:  73;


$$

INZ030>032-037>040-046>048-054>057-064-065-260700-
CENTRAL INDIANA

CITY           SKY/WX    TMP DP  RH WIND       PRES   REMARKS
INDIANAPOLIS   PTCLDY    63  55  75 SE8       29.66R
6HR MIN TEMP:  63; 6HR MAX TEMP:  72;

-EAGLE CREEK   PTCLDY    65  55  70 SE6       29.66R
6HR MIN TEMP:  65; 6HR MAX TEMP:  74;

KOKOMO +       PTCLDY    61  55  81 SE8       29.67R
6HR MIN TEMP:  61; 6HR MAX TEMP:  72;

SHELBYVILLE    CLEAR     63  53  70 S6        29.67S
6HR MIN TEMP:  62; 6HR MAX TEMP:  74;


$$

INZ033-034-041-042-049-050-058-059-260700-
EAST CENTRAL INDIANA

CITY           SKY/WX    TMP DP  RH WIND       PRES   REMARKS
MUNCIE         CLEAR     64  55  72 S5        29.67S
6HR MIN TEMP:  61; 6HR MAX TEMP:  74;

RICHMOND +     CLEAR     55  54  94 S6        29.71R

$$

INZ060-061-067>069-081>083-085>088-260700-
SOUTHWEST INDIANA

CITY           SKY/WX    TMP DP  RH WIND       PRES   REMARKS
EVANSVILLE     CLOUDY    64  56  75 CALM      29.64S
6HR MIN TEMP:  64; 6HR MAX TEMP:  75;

HUNTINGBURG *+ CLEAR     63  56  78 SE5       29.66R
6HR MIN TEMP:  63; 6HR MAX TEMP:  73;


$$

INZ062-063-066-070>080-084-089>092-260700-
SOUTH CENTRAL AND SOUTHEAST INDIANA

CITY           SKY/WX    TMP DP  RH WIND       PRES   REMARKS
BLOOMINGTON    MOCLDY    64  54  69 SE3       29.66R
6HR MIN TEMP:  63; 6HR MAX TEMP:  74;

MADISON *+     CLEAR     61  54  77 CALM      29.71R

$$





USA.gov is the U.S. government's official web portal to all federal, state and local government web resources and services.